Regional Weather Roundup
Issued by NWS New Orleans/Baton Rouge, LA

Home | Current Version | Previous Version | Text Only | Print | Product List | Glossary Off
Versions: 1 2 3 4 5 6 7 8 9 10 11 12 13 14 15 16 17 18 19 20 21 22 23 24 25 26 27 28 29 30 31 32 33 34 35 36 37 38 39 40 41 42 43 44 45 46 47 48 49 50

081
ASUS44 KLIX 201210
RWRLIX
NEW ORLEANS REGIONAL WEATHER ROUNDUP
NATIONAL WEATHER SERVICE NEW ORLEANS LA
700 AM CDT SUN APR 20 2014

NOTE: "FAIR" INDICATES FEW OR NO CLOUDS BELOW 12,000 FEET WITH NO
      SIGNIFICANT WEATHER AND/OR OBSTRUCTIONS TO VISIBILITY.
      SKY/WX - SKY CONDITION AND SIGNIFICANT WEATHER.
      TMP - AIR TEMPERATURE.     DP    - DEWPOINT TEMPERATURE.
      RH  - RELATIVE HUMIDITY.   PRES  - PRESSURE.
      HI  - HEAT INDEX.          WCI   - WIND CHILL INDEX.

*  THESE STATIONS ARE NOT NWS OR FAA STATIONS AND ARE NOT UNDER
   NWS QUALITY CONTROL.

LAZ038-040-048-061>063-065>067-069-201300-
SOUTHEAST LOUISIANA

CITY           SKY/WX    TMP DP  RH WIND       PRES   REMARKS
N.O. AUDUBON     N/A     62  55  80 MISG        N/A
6HR MIN TEMP:  61; 6HR MAX TEMP:  65;

N.O. INTL ARPT PTCLDY    63  57  81 NE6       30.15R
6HR MIN TEMP:  58; 6HR MAX TEMP:  66;

N.O. LAKEFRONT CLEAR     64  58  80 E7        30.16R
6HR MIN TEMP:  64; 6HR MAX TEMP:  68;

N.O. DOWNTOWN*   N/A     64  52  63 CALM      30.15S
6HR MIN TEMP:  64; 6HR MAX TEMP:  70;

SLIDELL        CLEAR     51  48  89 CALM      30.16R
6HR MIN TEMP:  51; 6HR MAX TEMP:  57;

BATON ROUGE    CLEAR     55  51  86 CALM      30.15R
6HR MIN TEMP:  53; 6HR MAX TEMP:  58;

BOOTHVILLE     CLEAR     61  59  93 E3        30.15R
6HR MIN TEMP:  61; 6HR MAX TEMP:  64;

BELLE CHASSE   CLEAR     54  51  90 NE3       30.15R
6HR MIN TEMP:  52; 6HR MAX TEMP:  58;

BOGALUSA*        N/A     51  48  89 CALM      30.19R
6HR MIN TEMP:  50; 6HR MAX TEMP:  56;

GALLIANO*      SUNNY     54  53  95 CALM      30.14R
6HR MIN TEMP:  53; 6HR MAX TEMP:  60;

NEW ROADS*       N/A     54  53  97 CALM      30.15S FOG
6HR MIN TEMP:  53; 6HR MAX TEMP:  60;

GONZALES*        N/A     54  54 100 CALM      30.15R
6HR MIN TEMP:  54; 6HR MAX TEMP:  58;

HAMMOND*       CLEAR     54  50  87 CALM      30.18R
HOUMA*         CLEAR     55  54  94 N3        30.15R
PORT FOURCHON* SUNNY     64  63  94 NW5       30.16R

$$

MSZ070-080>082-201300-
SOUTHERN MISSISSIPPI

CITY           SKY/WX    TMP DP  RH WIND       PRES   REMARKS
MCCOMB         CLEAR     51  48  89 CALM      30.18R
6HR MIN TEMP:  50; 6HR MAX TEMP:  63;

GULFPORT       CLEAR     60  54  80 E3        30.17R
6HR MIN TEMP:  56; 6HR MAX TEMP:  62;

BILOXI         CLEAR     59  54  84 N2        30.18R
6HR MIN TEMP:  56; 6HR MAX TEMP:  62;

PASCAGOULA     CLEAR     52  52 100 N3        30.17R FOG
6HR MIN TEMP:  50; 6HR MAX TEMP:  58;

STENNIS ARPT*  CLEAR    N/A N/A N/A CALM      30.18

$$

COASTAL OBSERVATIONS
LAKE AND NEARSHORE STATIONS

STATION/POSITION TIME  TEMP    WIND        PRES    WAVE
                       AIR SEA DIR/SP/G            HT/PER
                 (UTC) (F)     (DEG/KT/KT) (MB)    (FT/S)
PASCAGOULA       1200   58      20/  5/  7 1020.7
WAVELAND YACHT   1200   61 68   70/  6/  7 1020.6
GRAND ISLE       1200   66 68   60/  4/  7 1020.9
SOUTHWEST PASS   1200   62 58   70/  4/  5 1020.8
NEW CANAL        1200   65 67   70/ 10/ 12 1021.2
SHELL BEACH      1200   64 65  130/  5/  6 1020.7

OFFSHORE STATIONS

STATION/POSITION TIME  TEMP    WIND        PRES    WAVE
                       AIR SEA DIR/SP/G            HT/PER
                 (UTC) (F)     (DEG/KT/KT) (MB)    (FT/S)
64 S DAUPHIN ISL 1130   66 70   30/ 10/ 14 1020.8

$$




USA.gov is the U.S. government's official web portal to all federal, state and local government web resources and services.